Weather in Volgino

Russia / Novgorod Oblast     58°26′46″N   33°52′01″E
temp.,
°C
wind,
m/s
gust,
m/s
humid.,
%
clouds,
%
prec.,
mm/h
press.,
hPa
HPBL,
m
21 january, fri
fri2100:00−2s41091100 0.1 992512
03:00−2s41092100 0.2 992510
06:00−4sse3993100 0.1 993400
09:00−9ese229757 0.1 99418
12:00−3ese41096100 0.4 994613
15:00−3se488925 0.7 995474
18:00−8ene3897100 0.0 997133
21:00−7ne2796100 0.1 998187
22 january, sat
sat2200:00−6ne3796100 1.3 1000428
03:00−7ne3895100 2.1 1002480
06:00−7ne3894100 0.6 1003450
09:00−8ne389378 0.8 1006316
12:00−9ne3794100 0.1 1009323
15:00−8ne269463 0.1 1012294
18:00−14nne259865 0.0 101571
21:00−17ne2310074 0.0 101742
23 january, sun
sun2300:00−19ene1110086 0.0 101932
03:00−21n1110097 0.0 10229
06:00−22nne1110095 0.0 10249
09:00−23ene00100100 0.1 10279
12:00−15s019898 0.0 102856
15:00−12ssw019719 0.1 103023
18:00−19sse1110077 0.0 10329
21:00−21s1110093 0.0 10349
24 january, mon
mon2400:00−21sse2110079 0.0 103513
03:00−22s1110037 0.0 103511
06:00−20sse1110036 0.0 103512
09:00−18sse249833 0.0 103549
12:00−10ssw39925 0.0 1034254
15:00−6ssw311875 0.0 1032436
18:00−10s39915 0.0 1031192
21:00−9s41386100 0.0 1029356
25 january, tue
tue2500:00−9s5148146 0.0 1026417
03:00−9s5168081 0.0 1023491
06:00−7ssw51580100 0.0 1020590
09:00−8s41290100 0.1 1017472
12:00−6ssw51293100 0.4 1015557
15:00−4ssw51293100 0.9 1012579
18:00−4sw41293100 0.4 1012506
21:00−4sw389681 0.6 1012269